Weather History for Jackson, MN

Change the Weather History Date:

Monday, February 4, 2013

  Actual Average Record
Temperature  
Mean Temperature 16 °F -  
Max Temperature 23 °F 26 °F 59 °F (2005)
Min Temperature 8 °F 10 °F -14 °F (2007)
Degree Days  
Heating Degree Days 50    
Moisture  
Dew Point 11 °F    
Average Humidity 79    
Maximum Humidity 93    
Minimum Humidity 68    
Precipitation  
Precipitation 0.00 in - - ()
Sea Level Pressure  
Sea Level Pressure 29.90 in    
Wind  
Wind Speed 11 mph (NNW)    
Max Wind Speed 18 mph    
Max Gust Speed 24 mph    
Visibility 9 miles    
Events Snow    
Averages and records for this station are not official NWS values.
T = Trace of Precipitation, MM = Missing Value Source: NWS Daily Summary

Daily Weather History Graph

Daily Weather History Graph

Search for Another Location

Airport:

Trip Planner

Search our weather history database for the weather conditions in past years. The results will help you decide how hot, cold, wet, or windy it might be!

Date:

Astronomy

Feb. 04, 2013 Rise Set
Actual Time 7:32 AM CST 5:35 PM CST
Civil Twilight 7:02 AM CST 6:05 PM CST
Nautical Twilight 6:28 AM CST 6:40 PM CST
Astronomical Twilight 5:54 AM CST 7:13 PM CST
Moon 2:11 AM CST (2/4) 11:57 AM CST (2/4)
Length of Visible Light 11h 03m
Length of Day
10h 02m
Last Quarter, 37% of the Moon is Illuminated
Feb 4
Last Quarter
Feb 10
New
Feb 17
First Quarter
Feb 25
Full
Mar 4
Last Quarter

Hourly Weather History & Observations

Time (CST) Temp. Windchill Dew Point Humidity Pressure Visibility Wind Dir Wind Speed Gust Speed Precip Events Conditions
12:13 AM 17.6 °F 2.7 °F 12.2 °F 79% 29.85 in - NNE 16.1 mph 23.0 mph N/A   Overcast
12:33 AM 15.8 °F -0.2 °F 12.2 °F 86% 29.85 in - NNE 17.3 mph - N/A   Overcast
12:52 AM 15.8 °F 0.9 °F 12.2 °F 86% 29.86 in - NNE 15.0 mph - N/A   Overcast
1:13 AM 15.8 °F 0.3 °F 12.2 °F 86% 29.85 in - NNE 16.1 mph - N/A   Unknown
1:32 AM 14.0 °F -2.0 °F 12.2 °F 93% 29.86 in - NNE 16.1 mph - N/A   Unknown
1:53 AM 14.0 °F -2.0 °F 10.4 °F 86% 29.86 in - NNE 16.1 mph - N/A   Unknown
2:13 AM 14.0 °F -0.8 °F 10.4 °F 86% 29.87 in - NNE 13.8 mph 20.7 mph N/A   Overcast
2:32 AM 14.0 °F -1.4 °F 10.4 °F 86% 29.88 in - NNE 15.0 mph - N/A   Overcast
2:53 AM 14.0 °F -2.5 °F 10.4 °F 86% 29.88 in - North 17.3 mph - N/A   Unknown
3:12 AM 14.0 °F -1.4 °F 10.4 °F 86% 29.88 in - North 15.0 mph - N/A   Unknown
4:53 AM 12.2 °F -5.3 °F 8.6 °F 85% 29.92 in - North 18.4 mph 24.2 mph N/A   Unknown
5:12 AM 12.2 °F -4.3 °F 8.6 °F 85% 29.93 in - NNE 16.1 mph - N/A   Overcast
5:33 AM 12.2 °F -3.1 °F 8.6 °F 85% 29.93 in - NNE 13.8 mph - N/A   Overcast
5:53 AM 12.2 °F -2.5 °F 8.6 °F 85% 29.95 in - North 12.7 mph - N/A   Unknown
6:12 AM 10.4 °F -0.4 °F 6.8 °F 85% 29.95 in - North 6.9 mph - N/A   Overcast
6:33 AM 10.4 °F 2.2 °F 5.0 °F 79% 29.95 in - North 4.6 mph - N/A   Unknown
6:52 AM 8.6 °F -1.3 °F 5.0 °F 85% 29.96 in - North 5.8 mph - N/A   Unknown
7:12 AM 8.6 °F -2.6 °F 5.0 °F 85% 29.97 in - North 6.9 mph - N/A   Unknown
7:33 AM 8.6 °F -1.3 °F 3.2 °F 79% 29.97 in - North 5.8 mph - N/A   Unknown
7:52 AM 8.6 °F -2.6 °F 3.2 °F 79% 29.97 in - North 6.9 mph - N/A   Unknown
8:12 AM 8.6 °F -2.6 °F 3.2 °F 79% 29.97 in - North 6.9 mph - N/A   Unknown
8:33 AM 8.6 °F 2.0 °F 5.0 °F 85% 29.99 in - North 3.5 mph - N/A   Unknown
8:52 AM 8.6 °F -2.6 °F 5.0 °F 85% 29.99 in - North 6.9 mph - N/A   Unknown
9:12 AM 10.4 °F 0.8 °F 5.0 °F 79% 30.00 in - North 5.8 mph - N/A   Unknown
9:33 AM 10.4 °F 2.2 °F 5.0 °F 79% 29.99 in - North 4.6 mph - N/A   Overcast
9:52 AM 10.4 °F -2.4 °F 6.8 °F 85% 30.00 in - North 9.2 mph - N/A   Overcast
10:12 AM 12.2 °F 0.7 °F 6.8 °F 79% 30.00 in - North 8.1 mph - N/A   Unknown
10:33 AM 12.2 °F 4.3 °F 6.8 °F 79% 30.00 in - NNE 4.6 mph - N/A   Unknown
10:52 AM 12.2 °F 6.1 °F 6.8 °F 79% 30.00 in - North 3.5 mph - N/A   Mostly Cloudy
11:12 AM 14.0 °F 8.2 °F 6.8 °F 73% 30.00 in - NE 3.5 mph - N/A   Scattered Clouds
11:33 AM 14.0 °F 6.5 °F 6.8 °F 73% 29.99 in - NNE 4.6 mph - N/A   Clear
11:52 AM 14.0 °F 8.2 °F 8.6 °F 79% 29.98 in - NE 3.5 mph - N/A   Clear
12:12 PM 15.8 °F - 8.6 °F 73% 29.96 in - Calm Calm - N/A   Clear
12:33 PM 15.8 °F 8.6 °F 8.6 °F 73% 29.96 in - NE 4.6 mph - N/A   Clear
12:53 PM 17.6 °F - 8.6 °F 68% 29.97 in - Calm Calm - N/A   Clear
1:12 PM 17.6 °F - 8.6 °F 68% - - Calm Calm - N/A   Clear
1:33 PM 17.6 °F 12.3 °F 10.4 °F 73% 29.98 in - NW 3.5 mph - N/A   Scattered Clouds
1:53 PM 17.6 °F 12.3 °F 10.4 °F 73% 29.97 in - North 3.5 mph - N/A   Overcast
2:12 PM 19.4 °F 14.3 °F 10.4 °F 68% 29.95 in - North 3.5 mph - N/A   Overcast
2:33 PM 19.4 °F 11.5 °F 10.4 °F 68% 29.95 in - NW 5.8 mph - N/A   Scattered Clouds
2:53 PM 19.4 °F - 10.4 °F 68% 29.94 in - Calm Calm - N/A   Scattered Clouds
3:13 PM 19.4 °F - 10.4 °F 68% 29.94 in 10.0 mi Calm Calm - N/A   Mostly Cloudy
3:32 PM 19.4 °F 12.8 °F 10.4 °F 68% 29.93 in 10.0 mi SSW 4.6 mph - N/A   Mostly Cloudy
3:53 PM 19.4 °F 10.4 °F 12.2 °F 74% 29.94 in 10.0 mi SW 6.9 mph - N/A   Clear
4:12 PM 21.2 °F 13.6 °F 12.2 °F 68% 29.92 in 10.0 mi SW 5.8 mph - N/A   Scattered Clouds
4:33 PM 21.2 °F 13.6 °F 12.2 °F 68% 29.89 in 10.0 mi South 5.8 mph - N/A   Mostly Cloudy
4:53 PM 21.2 °F 10.9 °F 12.2 °F 68% 29.89 in 10.0 mi South 9.2 mph - N/A   Mostly Cloudy
5:12 PM 21.2 °F 12.6 °F 12.2 °F 68% 29.89 in 10.0 mi SSW 6.9 mph - N/A   Scattered Clouds
5:33 PM 21.2 °F 12.6 °F 12.2 °F 68% 29.89 in 10.0 mi SSW 6.9 mph - N/A   Mostly Cloudy
5:53 PM 21.2 °F 12.6 °F 14.0 °F 74% 29.88 in 10.0 mi South 6.9 mph - N/A   Mostly Cloudy
6:12 PM 21.2 °F 13.6 °F 14.0 °F 74% 29.86 in 10.0 mi South 5.8 mph - N/A   Mostly Cloudy
6:33 PM 19.4 °F 10.4 °F 14.0 °F 80% 29.85 in 10.0 mi South 6.9 mph - N/A   Scattered Clouds
6:53 PM 21.2 °F 10.9 °F 14.0 °F 74% 29.85 in 10.0 mi South 9.2 mph - N/A   Clear
7:12 PM 21.2 °F 10.1 °F 14.0 °F 74% 29.83 in 10.0 mi South 10.4 mph - N/A   Mostly Cloudy
7:33 PM 21.2 °F 10.1 °F 15.8 °F 80% 29.83 in 10.0 mi SSW 10.4 mph - N/A   Scattered Clouds
7:52 PM 21.2 °F 10.1 °F 15.8 °F 80% 29.83 in 10.0 mi SSW 10.4 mph - N/A   Mostly Cloudy
8:12 PM 21.2 °F 10.1 °F 17.6 °F 86% 29.83 in 10.0 mi SSW 10.4 mph - N/A   Overcast
8:52 PM 23.0 °F 10.1 °F 17.6 °F 80% 29.83 in 10.0 mi SW 15.0 mph - N/A   Overcast
9:12 PM 23.0 °F 11.7 °F 17.6 °F 80% 29.82 in 10.0 mi SW 11.5 mph - N/A   Overcast
9:33 PM 23.0 °F 10.6 °F 17.6 °F 80% 29.82 in 10.0 mi SW 13.8 mph - N/A   Overcast
9:52 PM 23.0 °F 11.1 °F 17.6 °F 80% 29.80 in 3.0 mi SW 12.7 mph - N/A Snow Light Snow
10:12 PM 23.0 °F 13.1 °F 17.6 °F 80% 29.80 in 7.0 mi SW 9.2 mph - N/A Snow Light Snow
10:33 PM 23.0 °F 11.1 °F 19.4 °F 86% 29.79 in 10.0 mi SSW 12.7 mph - N/A   Overcast
10:52 PM 23.0 °F 11.7 °F 19.4 °F 86% 29.79 in 10.0 mi SW 11.5 mph - N/A   Overcast
11:12 PM 23.0 °F 10.1 °F 19.4 °F 86% 29.77 in 10.0 mi SSW 15.0 mph - N/A   Overcast
11:32 PM 23.0 °F 9.6 °F 19.4 °F 86% 29.76 in 7.0 mi SSW 16.1 mph - N/A   Overcast
11:53 PM 23.0 °F 9.6 °F 19.4 °F 86% 29.75 in 7.0 mi SSW 16.1 mph - N/A   Overcast